Weather Roundup
Issued by NWS

Home | Current Version | Previous Version | Text Only | Print | Product List | Glossary On
Versions: 1 2 3 4 5 6 7 8 9 10 11 12 13 14 15 16 17 18 19 20 21 22 23 24 25 26 27 28 29 30 31 32 33 34 35 36 37 38 39 40 41 42 43 44 45 46 47 48 49 50
000
NZUS93 KARX 300010
HRRWXR

CURRENT HOURLY OBSERVATIONS ACROSS
MUCH OF THE UPPER MISSISSIPPI VALLEY
NATIONAL WEATHER SERVICE LA CROSSE WI
700 PM CDT FRI APR 29 2016


...SOUTHEAST MINNESOTA...


CITY           SKY/WX    TMP DP  RH WIND       PRES   REMARKS
ROCHESTER      CLOUDY    49  39  68 E10       30.12S
ROCHESTER/MAYO CLOUDY    50  38  64 E6        30.13R
WINONA         CLOUDY    52  39  62 CALM      30.14R
AUSTIN         CLOUDY    48  39  71 E6        30.10F
ALBERT LEA     CLOUDY    50  39  66 E7        30.10F
DODGE CENTER   CLOUDY    50  39  66 SE8       30.12R
PRESTON        CLOUDY    48  37  66 E5        30.12F
OWATONNA       CLOUDY    52  39  62 E10       30.12R
FARIBAULT      CLOUDY    54  39  58 E6        30.11S
$$

...ELSEWHERE IN MINNESOTA...


CITY           SKY/WX    TMP DP  RH WIND       PRES   REMARKS
MINNEAPOLIS    MOSUNNY   59  33  37 NE8       30.10S
INTNL FALLS    SUNNY     55  30  38 E12       30.19R
DULUTH         MOSUNNY   47  28  47 E12       30.18R
RED WING       SUNNY     55  37  50 S7        30.10F
REDWOOD FALLS  CLOUDY    54  37  52 E6        30.10S
MANKATO        CLOUDY    54  37  54 SE10      30.10S
WORTHINGTON    CLOUDY    49  40  71 E13       30.07F
FAIRMONT       CLOUDY    52  37  58 E10       30.08F
$$

...SOUTHWEST WISCONSIN...


CITY           SKY/WX    TMP DP  RH WIND       PRES   REMARKS
LA CROSSE      CLOUDY    53  38  56 VRB5      30.13R
PRAIRIE DU CHI CLOUDY    50  36  58 N5        30.12R
BOSCOBEL       CLOUDY    53  38  56 CALM      30.12S
LONE ROCK      CLOUDY    51  40  65 SE5       30.12S
PLATTEVILLE    CLOUDY    49  42  76 E5        30.11S
FORT MC COY    CLOUDY    52  40  62 CALM      30.13R
CAMP DOUGLAS   CLOUDY    53  42  66 E3        30.11R
MAUSTON-NEW LI NOT AVBL
VIROQUA        CLOUDY    49  37  62 CALM      30.11F
WIS DELLS      CLOUDY    51  37  57 E6        30.12R
$$

...ELSEWHERE IN WISCONSIN...


CITY           SKY/WX    TMP DP  RH WIND       PRES   REMARKS
MILWAUKEE      MOCLDY    43  35  73 NE7       30.14S
MADISON        PTCLDY    51  38  60 NE8       30.10F
GREEN BAY      CLEAR     53  31  42 NE8       30.14S
EAU CLAIRE     SUNNY     56  38  50 S3        30.11S
BLACK RVR FLS  CLOUDY    53  37  55 CALM      30.12S
MEDFORD        SUNNY     52  39  59 S7        30.11S
WAUSAU         PTCLDY    57  32  38 SE6       30.11R
WIS RAPIDS     CLEAR     55  33  43 SE8       30.13R
MARSHFIELD     SUNNY     56  35  45 E6        30.11S
RICE LAKE      CLOUDY    58  31  36 N9        30.13R
$$

...NORTHEAST IOWA...


CITY           SKY/WX    TMP DP  RH WIND       PRES   REMARKS
WATERLOO       CLOUDY    49  40  71 E9        30.08F
DUBUQUE        NOT AVBL
DECORAH        CLOUDY    48  39  71 E8        30.11R
MASON CITY     CLOUDY    48  40  73 E9        30.11F
CHARLES CITY   CLOUDY    48  43  81 SE3       30.11F
OELWEIN        CLOUDY    48  41  76 E5        30.11S
$$

...ELSEWHERE IN IOWA...


CITY           SKY/WX    TMP DP  RH WIND       PRES   REMARKS
DES MOINES     CLOUDY    50  40  68 E13       30.03F
IOWA CITY      CLOUDY    50  42  74 E8        30.08F
FORT DODGE     CLOUDY    46  37  71 E12       30.05F
MARSHALLTOWN   CLOUDY    48  41  76 E14       30.05F
CEDAR RAPIDS   CLOUDY    48  42  80 E10       30.06F
$$

...NORTHERN ILLINOIS...


CITY           SKY/WX    TMP DP  RH WIND       PRES   REMARKS
CHICAGO-OHARE  CLOUDY    45  38  76 NE10      30.12R
CHICAGO-MIDWAY CLOUDY    47  38  71 NE9       30.12R
MOLINE         CLOUDY    50  41  71 E13       30.08S
ROCKFORD       CLOUDY    49  38  65 E3        30.14S
PEORIA         CLOUDY    52  44  74 NE12      30.07R
$$

NOTE: "FAIR" INDICATES FEW OR NO CLOUDS BELOW 12,000 FEET WITH NO
SIGNIFICANT WEATHER AND/OR OBSTRUCTIONS TO VISIBILITY. WIND
SPEEDS ARE IN MILES-PER-HOUR.




USA.gov is the U.S. government's official web portal to all federal, state and local government web resources and services.